Regional Weather Roundup
Issued by NWS Midland/Odessa, TX

Skip options and go directly to product.
Home | Oldest Version | Previous Version | Current Version | All | Graphics & Text | Save Text | Print | Product List | Glossary On

Skip product version selection by date and time.   
099
ASUS44 KMAF 010810
RWRMAF
MIDLAND AREA WEATHER ROUNDUP
NATIONAL WEATHER SERVICE MIDLAND TX
200 AM CST SUN FEB 01 2015

...IN SOUTHWEST TEXAS AND SOUTHEAST NEW MEXICO...

CITY           SKY/WX    TMP DP  RH WIND       PRES   REMARKS
ALPINE         CLEAR     44  39  82 SW8       30.00F WCI  40
ANDREWS        FOG       47  47 100 SW14      29.87F VSB 1/2
ARTESIA        FOG       43  43 100 NW5       29.90F VSB 1/4
BIG SPRING     CLOUDY    51  49  93 S12       29.89F VSB 1
CARLSBAD       FOG       42  41  96 N5        29.88F VSB<1/4 WCI  39
DRYDEN           N/A     51  50  96 W6        29.90F
FORT STOCKTON  CLEAR     48  44  86 SW12      29.91R
GUAD PASS      MOCLDY    41  40  96 SW13G21   29.93S WCI  34
HOBBS          FOG       41  41 100 SW9       29.89S VSB 1/4 WCI  35
MARFA          CLEAR     36  34  93 CALM      29.98R
MIDLAND AIRPK  FOG       50  50 100 SW7       29.89F VSB 3/4
MIDLAND INTL   FOG       49  48  97 SW8       29.88S VSB 1/4
ODESSA         FOG       47  46  97 SW7       29.89F VSB 1/4
PECOS          FOG       39  38  97 CALM      29.91R VSB 1/4
PRESIDIO       FAIR      49  46  86 N9        29.93R
SEMINOLE       FOG       47  47 100 SW10      29.89S VSB 3/4
SNYDER         FOG      N/A N/A N/A SW6       29.87S VSB 3/4
WINK           FOG       44  41  89 CALM      29.88F VSB 1/4
$$
...OTHER STATIONS IN TEXAS...

CITY           SKY/WX    TMP DP  RH WIND       PRES   REMARKS
ABILENE        MOCLDY    54  52  93 W7        29.86S
AMARILLO       CLOUDY    41  39  93 NW8       29.85R WCI  36
AUSTIN         CLOUDY    62  60  93 S9        29.91F
BROWNSVILLE    LGT RAIN  65  62  90 S13       29.93S
CORPUS CHRISTI MOCLDY    66  62  87 S13       29.91S
DALLAS FTW     CLOUDY    54  54 100 S7        29.86F
DEL RIO        MOCLDY    57  55  93 E8        29.88F FOG
EL PASO        MOCLDY    49  42  77 CALM      29.93R
HOUSTON INT    CLOUDY    63  61  93 S5        29.95R FOG
LUBBOCK        CLOUDY    46  45  96 W13       29.83F FOG
SAN ANGELO     MOCLDY    53  51  93 S7        29.87F
SAN ANTONIO    CLOUDY    62  60  93 SE3       29.92S
WACO           CLOUDY    58  58 100 S10       29.89F FOG
WICHITA FALLS  NOT AVBL
$$
...OTHER LOCATIONS IN NEW MEXICO...

CITY           SKY/WX    TMP DP  RH WIND       PRES   REMARKS
ALAMAGORDO     CLOUDY    46  45  93 CALM      29.94S
ALBUQUERQUE    CLOUDY    39  32  76 NW9       29.99R WCI  33
CANNON AFB     NOT AVBL
CLOVIS         MOCLDY    36  34  93 NW5       29.85R WCI  32
HOLLOMAN AFB   CLOUDY    42  42 100 CALM      29.92S
ROSWELL        FOG       43  42  97 S5        29.89S VSB 1/4
RUIDOSO        CLOUDY    39  34  81 NW10G18   29.94F WCI  32
SANTA FE       FOG       30  28  92 W7        29.94S VSB 1/4 WCI  23
TRUTH OR CONSE CLOUDY    43  42  97 NW3       29.94S
TUCUMCARI      FOG       33  29  85 NW3       29.86S VSB 1
$$

USA.gov is the U.S. government's official web portal to all federal, state and local government web resources and services.